When you browse on this site, cookies collect data to enhance your experience and personalize the content and advertising you see.
Visit our Privacy Policy to learn more. By continuing to use the site, you agree to this use of cookies and data.
  • En España
  • Lista de países
  • Para 7 días
  • Temperatura del agua
  • Mapa Satelital
  • El tiempo en el mapa
  • Informadores
  • user-avatar
    Iniciar sesión

    Tiempo cada hora Linz

    Hoy, 21 Julio, Domingo

    Tiempo Temperatura Precipitaciones Viento Presión Humedad
    00:00 +20°C° 0.2 mm 2 mps 735 mmHg 82%
    01:00 +21°C° 0 mm 1 mps 735 mmHg 80%
    02:00 +20°C° 0 mm 1 mps 735 mmHg 82%
    03:00 +20°C° 0 mm 1 mps 735 mmHg 84%
    04:00 +17°C° 0 mm 0 mps 735 mmHg 86%
    05:00 +19°C° 0.4 mm 1 mps 735 mmHg 87%
    06:00 +19°C° 0.4 mm 2 mps 735 mmHg 88%
    07:00 +19°C° 0.4 mm 3 mps 735 mmHg 89%
    08:00 +19°C° 2.2 mm 3 mps 736 mmHg 91%
    09:00 +19°C° 2.2 mm 4 mps 737 mmHg 94%
    10:00 +19°C° 2.2 mm 4 mps 737 mmHg 96%
    11:00 +20°C° 1 mm 3 mps 737 mmHg 90%
    12:00 +23°C° 1 mm 2 mps 737 mmHg 84%
    13:00 +24°C° 1 mm 2 mps 737 mmHg 78%
    14:00 +25°C° 0.1 mm 2 mps 738 mmHg 74%
    15:00 +26°C° 0.1 mm 3 mps 738 mmHg 71%
    16:00 +27°C° 0.1 mm 4 mps 738 mmHg 67%
    17:00 +26°C° 1 mm 4 mps 738 mmHg 74%
    18:00 +24°C° 1 mm 3 mps 738 mmHg 82%
    19:00 +22°C° 1 mm 3 mps 738 mmHg 89%
    20:00 +21°C° 0.5 mm 2 mps 738 mmHg 90%
    21:00 +20°C° 0.5 mm 2 mps 739 mmHg 91%
    22:00 +19°C° 0.5 mm 2 mps 740 mmHg 92%
    23:00 +19°C° 0 mm 2 mps 740 mmHg 92%

    Mañana, 22 Julio, Lunes

    Tiempo Temperatura Precipitaciones Viento Presión Humedad
    00:00 +18°C° 0 mm 2 mps 740 mmHg 92%
    01:00 +19°C° 0 mm 1 mps 740 mmHg 92%
    02:00 +18°C° 0 mm 1 mps 740 mmHg 93%
    03:00 +18°C° 0 mm 1 mps 740 mmHg 93%
    04:00 +18°C° 0 mm 1 mps 739 mmHg 93%
    05:00 +19°C° 0 mm 1 mps 740 mmHg 92%
    06:00 +20°C° 0 mm 1 mps 740 mmHg 90%
    07:00 +19°C° 0 mm 0 mps 740 mmHg 88%
    08:00 +22°C° 0 mm 1 mps 740 mmHg 81%
    09:00 +24°C° 0 mm 1 mps 740 mmHg 74%
    10:00 +25°C° 0 mm 1 mps 740 mmHg 66%
    11:00 +26°C° 0 mm 1 mps 740 mmHg 62%
    12:00 +27°C° 0 mm 1 mps 740 mmHg 58%
    13:00 +28°C° 0 mm 2 mps 740 mmHg 54%
    14:00 +28°C° 0 mm 2 mps 740 mmHg 55%
    15:00 +28°C° 0 mm 2 mps 739 mmHg 55%
    16:00 +28°C° 0 mm 2 mps 739 mmHg 56%
    17:00 +27°C° 0 mm 2 mps 739 mmHg 62%
    18:00 +25°C° 0 mm 1 mps 739 mmHg 68%
    19:00 +24°C° 0 mm 1 mps 739 mmHg 74%
    20:00 +23°C° 0 mm 1 mps 739 mmHg 77%
    21:00 +21°C° 0 mm 1 mps 740 mmHg 79%
    22:00 +20°C° 0 mm 1 mps 740 mmHg 82%
    23:00 +17°C° 0 mm 0 mps 740 mmHg 83%

    Pasado mañana, 23 Julio, Martes

    Tiempo Temperatura Precipitaciones Viento Presión Humedad
    00:00 +17°C° 0 mm 0 mps 740 mmHg 84%
    01:00 +17°C° 0 mm 0 mps 739 mmHg 84%
    02:00 +16°C° 0 mm 0 mps 739 mmHg 85%
    03:00 +16°C° 0 mm 0 mps 739 mmHg 86%
    04:00 +16°C° 0 mm 0 mps 739 mmHg 87%
    05:00 +17°C° 0 mm 0 mps 739 mmHg 83%
    06:00 +18°C° 0 mm 0 mps 739 mmHg 80%
    07:00 +20°C° 0 mm 0 mps 739 mmHg 76%
    08:00 +23°C° 0 mm 1 mps 739 mmHg 71%
    09:00 +25°C° 0 mm 1 mps 739 mmHg 66%
    10:00 +27°C° 0 mm 1 mps 739 mmHg 62%
    11:00 +28°C° 0 mm 1 mps 739 mmHg 58%
    12:00 +29°C° 0 mm 2 mps 738 mmHg 54%
    13:00 +30°C° 0 mm 2 mps 738 mmHg 50%
    14:00 +30°C° 0 mm 2 mps 738 mmHg 51%
    15:00 +30°C° 0 mm 2 mps 737 mmHg 51%
    16:00 +30°C° 0 mm 2 mps 737 mmHg 52%
    17:00 +28°C° 0 mm 2 mps 737 mmHg 59%
    18:00 +27°C° 0 mm 2 mps 737 mmHg 66%
    19:00 +26°C° 0 mm 2 mps 737 mmHg 73%
    20:00 +24°C° 0 mm 2 mps 737 mmHg 76%
    21:00 +23°C° 0 mm 2 mps 737 mmHg 78%
    22:00 +21°C° 0 mm 2 mps 737 mmHg 80%
    23:00 +20°C° 0 mm 2 mps 737 mmHg 82%

    24 Julio, Miércoles

    Tiempo Temperatura Precipitaciones Viento Presión Humedad
    00:00 +20°C° 0 mm 2 mps 737 mmHg 83%
    01:00 +19°C° 0 mm 2 mps 737 mmHg 84%
    02:00 +20°C° 0 mm 1 mps 737 mmHg 86%
    03:00 +19°C° 0 mm 1 mps 737 mmHg 87%
    04:00 +19°C° 0 mm 1 mps 736 mmHg 89%
    05:00 +19°C° 0 mm 2 mps 736 mmHg 85%
    06:00 +20°C° 0 mm 2 mps 736 mmHg 82%
    07:00 +23°C° 0 mm 2 mps 737 mmHg 78%
    08:00 +24°C° 0 mm 2 mps 737 mmHg 74%
    09:00 +26°C° 0 mm 2 mps 737 mmHg 69%
    10:00 +28°C° 0 mm 3 mps 737 mmHg 64%
    11:00 +29°C° 0 mm 3 mps 736 mmHg 61%
    12:00 +30°C° 0 mm 3 mps 736 mmHg 59%
    13:00 +31°C° 0 mm 3 mps 736 mmHg 56%
    14:00 +32°C° 0 mm 4 mps 736 mmHg 56%
    15:00 +32°C° 0 mm 4 mps 735 mmHg 55%
    16:00 +32°C° 0 mm 4 mps 735 mmHg 55%
    17:00 +30°C° 0 mm 4 mps 735 mmHg 60%
    18:00 +28°C° 0 mm 3 mps 735 mmHg 64%
    19:00 +26°C° 0 mm 3 mps 735 mmHg 69%
    20:00 +25°C° 0 mm 2 mps 735 mmHg 70%
    21:00 +24°C° 0 mm 2 mps 736 mmHg 70%
    22:00 +23°C° 0 mm 2 mps 736 mmHg 70%
    23:00 +21°C° 0 mm 2 mps 736 mmHg 73%

    25 Julio, Jueves

    Tiempo Temperatura Precipitaciones Viento Presión Humedad
    00:00 +21°C° 0 mm 2 mps 736 mmHg 76%
    01:00 +21°C° 0 mm 1 mps 736 mmHg 79%
    02:00 +21°C° 0 mm 1 mps 735 mmHg 82%
    03:00 +20°C° 0 mm 1 mps 735 mmHg 84%
    04:00 +20°C° 0 mm 1 mps 735 mmHg 87%
    05:00 +21°C° 0 mm 1 mps 735 mmHg 84%
    06:00 +21°C° 0 mm 2 mps 735 mmHg 81%
    07:00 +23°C° 0 mm 2 mps 735 mmHg 78%
    08:00 +25°C° 0 mm 2 mps 735 mmHg 74%
    09:00 +27°C° 0 mm 3 mps 735 mmHg 69%
    10:00 +28°C° 0 mm 3 mps 735 mmHg 64%
    11:00 +29°C° 0 mm 3 mps 735 mmHg 62%
    12:00 +31°C° 0 mm 3 mps 734 mmHg 59%
    13:00 +33°C° 0 mm 4 mps 734 mmHg 56%
    14:00 +33°C° 0 mm 4 mps 734 mmHg 54%
    15:00 +34°C° 0 mm 4 mps 733 mmHg 53%
    16:00 +34°C° 0 mm 4 mps 733 mmHg 52%
    17:00 +31°C° 0 mm 3 mps 733 mmHg 57%
    18:00 +30°C° 0 mm 3 mps 733 mmHg 63%
    19:00 +28°C° 0 mm 3 mps 733 mmHg 68%
    20:00 +27°C° 0 mm 2 mps 733 mmHg 70%
    21:00 +26°C° 0 mm 2 mps 733 mmHg 71%
    22:00 +25°C° 0 mm 2 mps 733 mmHg 73%
    23:00 +24°C° 0 mm 2 mps 733 mmHg 75%

    26 Julio, Viernes

    Tiempo Temperatura Precipitaciones Viento Presión Humedad
    00:00 +23°C° 0 mm 2 mps 733 mmHg 78%
    01:00 +21°C° 0 mm 2 mps 733 mmHg 80%
    02:00 +22°C° 0 mm 1 mps 733 mmHg 82%
    03:00 +21°C° 0 mm 1 mps 732 mmHg 84%
    04:00 +21°C° 0 mm 1 mps 732 mmHg 86%
    05:00 +22°C° 0 mm 1 mps 732 mmHg 83%
    06:00 +23°C° 0 mm 1 mps 732 mmHg 80%
    07:00 +24°C° 0 mm 1 mps 732 mmHg 77%
    08:00 +26°C° 0 mm 1 mps 732 mmHg 73%
    09:00 +28°C° 0 mm 1 mps 732 mmHg 69%
    10:00 +29°C° 0 mm 1 mps 732 mmHg 65%
    11:00 +30°C° 0 mm 1 mps 732 mmHg 63%
    12:00 +31°C° 0 mm 1 mps 732 mmHg 61%
    13:00 +32°C° 0 mm 2 mps 732 mmHg 58%
    14:00 +33°C° 0.1 mm 1 mps 731 mmHg 57%
    15:00 +33°C° 0.1 mm 1 mps 731 mmHg 56%
    16:00 +33°C° 0.1 mm 1 mps 731 mmHg 56%
    17:00 +32°C° 0.2 mm 1 mps 730 mmHg 62%
    18:00 +30°C° 0.2 mm 1 mps 730 mmHg 69%
    19:00 +27°C° 0.2 mm 0 mps 730 mmHg 75%
    20:00 +27°C° 0.9 mm 1 mps 730 mmHg 79%
    21:00 +26°C° 0.9 mm 1 mps 730 mmHg 83%
    22:00 +25°C° 0.9 mm 1 mps 730 mmHg 87%
    23:00 +24°C° 1 mm 2 mps 730 mmHg 89%
    Mostrar más